BMCB-7 Weather Reports


time (UTC)temp
C
wind
direction
speed
KPH
gust
KPH
rain 1hr
cm
rain 24hr
cm
rain mn
cm
humidity
%
barometer
mb
20260510091023 13 39 12.9 20.9 0.00 0.00 0.00 74 1012.1
20260510090049 13 39 12.9 20.9 0.00 0.00 0.00 74 1012.1
20260510084047 12 40 11.3 22.5 0.00 0.00 0.00 75 1012.2
20260510083048 12 38 9.7 16.1 0.00 0.00 0.00 75 1012.4
20260510082045 12 43 11.3 17.7 0.00 0.00 0.00 76 1012.5
20260510081048 12 31 9.7 17.7 0.00 0.00 0.00 77 1012.5
20260510075048 12 30 9.7 16.1 0.00 0.00 0.00 79 1012.6
20260510074023 11 28 9.7 14.5 0.00 0.00 0.00 79 1012.6
20260510073023 11 31 9.7 14.5 0.00 0.00 0.00 80 1012.7
20260510072045 11 33 9.7 17.7 0.00 0.00 0.00 81 1012.7
20260510071047 11 27 8.0 16.1 0.00 0.00 0.00 81 1012.7
20260510070046 11 19 8.0 16.1 0.00 0.00 0.00 82 1012.7
20260510064045 10 10 11.3 16.1 0.00 0.00 0.00 82 1012.6
20260510063047 10 9 9.7 16.1 0.00 0.00 0.00 83 1012.6
20260510062049 10 11 9.7 12.9 0.00 0.00 0.00 84 1012.6
20260510061047 10 14 8.0 12.9 0.00 0.00 0.00 83 1012.6
20260510060023 10 11 6.4 11.3 0.00 0.00 0.00 83 1012.7
20260510055048 10 12 6.4 11.3 0.00 0.00 0.00 81 1012.7
20260510054022 10 9 4.8 9.7 0.00 0.00 0.00 80 1012.8
20260510052023 10 29 4.8 8.0 0.00 0.00 0.00 81 1012.8
20260510051021 10 28 4.8 6.4 0.00 0.00 0.00 81 1012.8
20260510050022 10 28 6.4 8.0 0.00 0.00 0.00 81 1012.7
20260510045023 10 22 4.8 8.0 0.00 0.00 0.00 82 1012.8
20260510044022 10 22 4.8 8.0 0.00 0.00 0.00 81 1012.8
20260510043040 10 27 4.8 8.0 0.00 0.00 0.00 80 1012.8
20260510042040 10 26 4.8 9.7 0.00 0.00 0.00 80 1012.9
20260510041022 10 22 3.2 6.4 0.00 0.00 0.00 80 1012.9
20260510040022 10 19 3.2 4.8 0.00 0.00 0.00 79 1012.8
20260510035048 10 32 4.8 6.4 0.00 0.00 0.00 80 1012.9
20260510034022 10 32 4.8 6.4 0.00 0.00 0.00 79 1013.1
20260510033048 10 1 1.6 4.8 0.00 0.00 0.00 79 1013.1
20260510031047 10 38 4.8 8.0 0.00 0.00 0.00 78 1013.2
20260510030047 10 36 4.8 8.0 0.00 0.00 0.00 77 1013.3
20260510025046 11 39 6.4 11.3 0.00 0.00 0.00 75 1013.2
20260510024046 10 77 4.8 9.7 0.00 0.00 0.00 75 1013.2
20260510023043 10 43 4.8 9.7 0.00 0.00 0.00 75 1013.3
20260510022046 11 33 6.4 11.3 0.00 0.00 0.00 74 1013.2
20260510021046 11 47 4.8 9.7 0.00 0.00 0.00 74 1013.3
20260510020046 11 45 4.8 8.0 0.00 0.00 0.00 74 1013.4
20260510015046 11 36 6.4 9.7 0.00 0.00 0.00 74 1013.3
20260510014046 10 33 6.4 11.3 0.00 0.00 0.00 74 1013.6
20260510013044 10 35 6.4 9.7 0.00 0.00 0.00 75 1013.7
20260510012046 10 19 6.4 9.7 0.00 0.00 0.00 76 1013.7
20260510010043 10 14 6.4 8.0 0.00 0.00 0.00 77 1013.8
20260510005043 10 23 6.4 8.0 0.00 0.00 0.00 76 1014.0
20260510004045 10 24 6.4 9.7 0.00 0.00 0.00 77 1014.0
20260510003044 10 23 6.4 9.7 0.00 0.00 0.00 76 1014.1
20260510002046 10 21 6.4 8.0 0.00 0.00 0.00 75 1014.1
20260510001046 11 28 6.4 9.7 0.00 0.00 0.00 74 1014.2
20260510000049 11 40 6.4 11.3 0.00 0.00 0.00 75 1014.2
20260509234050 11 36 6.4 9.7 0.00 0.00 0.00 74 1014.2
20260509233049 11 19 6.4 9.7 0.00 0.00 0.00 74 1014.2
20260509232050 11 12 6.4 11.3 0.00 0.00 0.00 73 1014.2
20260509231051 11 19 6.4 9.7 0.00 0.00 0.00 73 1014.4
20260509225052 11 27 6.4 8.0 0.00 0.00 0.00 73 1014.5
20260509224053 11 45 6.4 11.3 0.00 0.00 0.00 72 1014.5
20260509223051 11 48 6.4 11.3 0.00 0.00 0.00 72 1014.5
20260509222054 11 40 6.4 11.3 0.00 0.00 0.00 72 1014.6
20260509221053 12 36 6.4 9.7 0.00 0.00 0.00 70 1014.5
20260509220051 12 34 8.0 9.7 0.00 0.00 0.00 71 1014.6
20260509215057 12 34 8.0 9.7 0.00 0.00 0.00 71 1014.6
20260509214056 12 42 8.0 12.9 0.00 0.00 0.00 71 1014.6
20260509213054 12 39 8.0 12.9 0.00 0.00 0.00 70 1014.6
20260509212055 12 39 8.0 12.9 0.00 0.00 0.00 69 1014.6
20260509211056 12 36 8.0 12.9 0.00 0.00 0.00 68 1014.6
20260509210054 12 30 8.0 12.9 0.00 0.00 0.00 68 1014.5
20260509204055 13 22 8.0 14.5 0.00 0.00 0.00 66 1014.6
20260509203056 13 28 8.0 12.9 0.00 0.00 0.00 65 1014.6
20260509202056 13 28 8.0 12.9 0.00 0.00 0.00 65 1014.6
20260509201056 13 28 8.0 12.9 0.00 0.00 0.00 64 1014.6
20260509200056 14 20 8.0 14.5 0.00 0.00 0.00 64 1014.5
20260509195055 14 28 9.7 19.3 0.00 0.00 0.00 63 1014.4
20260509194052 15 30 11.3 16.1 0.00 0.00 0.00 62 1014.3
20260509193058 15 30 11.3 16.1 0.00 0.00 0.00 62 1014.1
20260509192054 15 28 11.3 19.3 0.00 0.00 0.00 61 1014.1
20260509191054 15 23 11.3 17.7 0.00 0.00 0.00 59 1014.0
20260509190056 15 24 9.7 16.1 0.00 0.00 0.00 59 1014.0
20260509185055 16 27 11.3 22.5 0.00 0.00 0.00 59 1013.9
20260509184052 16 23 11.3 19.3 0.00 0.00 0.00 58 1013.9
20260509183055 16 26 12.9 22.5 0.00 0.00 0.00 58 1013.8
20260509181051 17 27 11.3 19.3 0.00 0.00 0.00 57 1013.5
20260509180053 17 26 8.0 14.5 0.00 0.00 0.00 56 1013.4
20260509175051 17 23 11.3 19.3 0.00 0.00 0.00 56 1013.3
20260509174053 17 29 11.3 20.9 0.00 0.00 0.00 56 1013.4
20260509173053 17 18 11.3 17.7 0.00 0.00 0.00 55 1013.6
20260509171051 18 27 11.3 20.9 0.00 0.00 0.00 52 1013.2
20260509170051 18 39 11.3 17.7 0.00 0.00 0.00 51 1013.1
20260509165050 18 36 11.3 16.1 0.00 0.00 0.00 51 1013.0
20260509164050 19 63 9.7 19.3 0.00 0.00 0.00 50 1013.0
20260509163050 19 63 8.0 19.3 0.00 0.00 0.00 49 1013.0
20260509162051 19 55 9.7 19.3 0.00 0.00 0.00 50 1013.0
20260509161051 20 49 9.7 16.1 0.00 0.00 0.00 48 1013.0
20260509153048 20 39 9.7 17.7 0.00 0.00 0.00 48 1013.3
20260509152053 20 53 8.0 12.9 0.00 0.00 0.00 46 1013.4
20260509151049 20 51 9.7 14.5 0.00 0.00 0.00 48 1013.6
20260509150049 20 5 6.4 14.5 0.00 0.00 0.00 47 1013.5
20260509144045 20 28 8.0 14.5 0.00 0.00 0.00 47 1013.6
20260509143048 20 72 6.4 12.9 0.00 0.00 0.00 47 1013.7
20260509142048 19 70 6.4 11.3 0.00 0.00 0.00 48 1013.9
20260509141052 20 70 6.4 14.5 0.00 0.00 0.00 46 1013.9
20260509133049 19 291 8.0 17.7 0.00 0.00 0.00 46 1014.3
20260509132047 20 57 6.4 16.1 0.00 0.00 0.00 47 1014.4
20260509131047 20 46 4.8 14.5 0.00 0.00 0.00 47 1014.4
20260509130046 20 11 8.0 16.1 0.00 0.00 0.00 47 1014.5
20260509124047 19 357 6.4 16.1 0.00 0.00 0.00 46 1014.8
20260509123048 19 45 6.4 14.5 0.00 0.00 0.00 45 1014.8
20260509122046 20 23 9.7 14.5 0.00 0.00 0.00 46 1014.9
20260509121048 19 272 9.7 16.1 0.00 0.00 0.00 43 1015.0
20260509115048 19 87 6.4 14.5 0.00 0.00 0.00 46 1015.2
20260509114047 19 1 4.8 14.5 0.00 0.00 0.00 46 1015.4
20260509113050 19 63 8.0 14.5 0.00 0.00 0.00 46 1015.5
20260509112045 18 40 6.4 14.5 0.00 0.00 0.00 47 1015.6
20260509111049 18 77 6.4 16.1 0.00 0.00 0.00 47 1015.7
20260509110046 18 102 6.4 12.9 0.00 0.00 0.00 49 1015.8
20260509104046 18 76 8.0 16.1 0.00 0.00 0.00 50 1015.9
20260509103047 18 94 8.0 17.7 0.00 0.00 0.00 49 1016.0
20260509102047 18 79 6.4 12.9 0.00 0.00 0.00 50 1016.0
20260509101048 18 81 8.0 14.5 0.00 0.00 0.00 52 1016.1
20260509100047 17 307 8.0 16.1 0.00 0.00 0.00 51 1016.1
20260509095047 17 83 8.0 19.3 0.00 0.00 0.00 52 1016.2
20260509094045 17 79 9.7 17.7 0.00 0.00 0.00 52 1016.2
20260509093037 17 80 9.7 16.1 0.00 0.00 0.00 55 1016.2
20260509092023 17 93 8.0 14.5 0.00 0.00 0.00 58 1016.2